Regional Weather Roundup
Issued by NWS Sioux Falls, SD

Home | Current Version | Previous Version | Graphics & Text | Print | Product List | Glossary Off
Versions: 1 2 3 4 5 6 7 8 9 10 11 12 13 14 15 16 17 18 19 20 21 22 23 24 25 26 27 28 29 30 31 32 33 34 35 36 37 38 39 40 41 42 43 44 45 46 47 48 49 50

000
ASUS43 KFSD 232110
RWRFSD

WEATHER ROUNDUP FOR SE SOUTH DAKOTA/SW MINNESOTA/NW IOWA
NATIONAL WEATHER SERVICE SIOUX FALLS SD
400 PM CDT TUE MAY 23 2017

NOTE: "FAIR" INDICATES FEW OR NO CLOUDS BELOW 12,000 FEET WITH NO
SIGNIFICANT WEATHER AND OR OBSTRUCTIONS TO VISIBILITY.


SDZ038>040-050-052>070-232200-
SOUTHEAST SOUTH DAKOTA

CITY           SKY/WX    TMP DP  RH WIND       PRES   REMARKS
BROOKINGS      CLOUDY    52  46  82 N20       29.87S
CHAMBERLAIN    CLOUDY    55  44  66 N18G24    29.98S
HURON          CLOUDY    53  45  74 N21       29.94S
MADISON        MOCLDY    50  50 100 N18G25    29.88S
MITCHELL       CLOUDY    56  45  66 N18G32    29.93S
SIOUX FALLS    CLOUDY    58  48  69 N17       29.85F
WINNER         CLOUDY    57  42  57 N21G30    29.99S
YANKTON        CLOUDY    53  48  83 NW17      29.89S
$$

MNZ071-072-080-081-089-090-097-098-232200-
SOUTHWEST MINNESOTA

CITY           SKY/WX    TMP DP  RH WIND       PRES   REMARKS
FAIRMONT       CLOUDY    56  48  74 N15       29.80S
JACKSON        CLOUDY    54  45  71 VRB10G17  29.81S
LUVERNE        CLOUDY    54  46  76 N12G24    29.85S
MARSHALL       PTSUNNY   54  47  77 N15       29.84F
MONTEVIDEO     PTSUNNY   57  48  72 E13       29.85S
PIPESTONE      LGT RAIN  52  45  76 NE7       29.85S
REDWOOD FALLS  CLOUDY    59  42  53 VRB7G17   29.82S
TRACY          CLOUDY    53  48  84 N9        29.84S
WINDOM         CLOUDY    55  46  71 N12       29.82S
WORTHINGTON    CLOUDY    54  47  77 N16       29.83F
$$

IAZ001>003-012>014-020>022-031-032-NEZ013-014-SDZ071-232200-
NORTHWEST IOWA

CITY           SKY/WX    TMP DP  RH WIND       PRES   REMARKS
CHEROKEE       CLOUDY    54  50  86 N10       29.82F
DENISON        RAIN      52  46  82 N17G26    29.84R
ESTHERVILLE    LGT RAIN  50  47  89 N14G23    29.80S FOG
LE MARS        CLOUDY    52  48  87 N8        29.85R
ORANGE CITY    CLOUDY    55  46  71 N14       29.83F
SHELDON        CLOUDY    57  46  67 N21         N/A
SIOUX CITY     CLOUDY    56  51  84 NW16      29.84F
SPENCER        CLOUDY    55  48  77 N13       29.81F
STORM LAKE     CLOUDY    52  46  82 N14G21    29.81S
$$

ABBREVIATIONS USED IN REMARKS
   TC - TEMPERATURE IN CELSIUS
  WCI - WIND CHILL INDEX
   HX - HEAT INDEX
  VSB - VISIBILITY





USA.gov is the U.S. government's official web portal to all federal, state and local government web resources and services.